Theta_e
334 328 322 313 302 298 294 296 303 304 304 309 312 311 314 315 314 308 327 336 338 340 345 346 347 349 346 345 344 344 341 341 340 341 341 343 343 343 340 340 338 338 338 338 338 337 336 336 336
330 329 314 308 297 292 292 299 303 307 310 312 312 313 314 313 323 325 326 337 339 341 344 345 345 347 346 345 345 344 343 340 340 341 342 343 342 343 341 340 339 338 337 338 337 336 335 333 334
329 324 307 303 295 293 294 301 305 308 310 310 310 315 315 316 324 325 331 338 339 339 343 344 345 347 346 345 344 343 341 341 339 340 342 344 342 344 343 341 340 338 337 336 336 336 334 333 334
323 315 309 299 295 298 300 303 308 307 309 311 311 312 319 325 326 330 332 334 336 339 341 342 345 347 346 345 343 343 342 341 339 338 340 339 342 344 343 342 340 337 336 336 335 335 334 333 332
319 310 302 299 296 299 302 308 308 307 307 306 308 309 315 326 331 332 331 334 337 338 340 342 344 346 345 344 343 343 342 340 338 337 337 338 341 339 341 340 340 338 335 334 334 334 333 331 330
313 310 301 299 296 301 304 308 308 304 305 305 306 314 315 328 329 330 329 329 337 337 340 341 338 341 343 343 343 342 341 340 338 338 338 337 336 336 335 336 339 338 335 333 333 332 332 331 329
309 306 301 303 298 300 305 310 306 305 305 304 307 311 317 324 329 330 328 326 334 337 338 339 339 339 337 338 339 340 340 339 338 338 337 336 334 334 333 332 336 336 335 334 333 331 330 329 328
310 306 302 302 302 300 305 308 308 307 308 312 312 308 311 322 329 330 327 324 326 333 336 336 336 338 338 337 333 334 336 336 336 335 332 330 330 330 330 329 332 334 336 334 333 331 329 328 326
315 302 299 306 303 302 306 305 308 309 310 312 316 315 320 328 328 326 321 321 322 325 330 335 335 336 336 336 332 330 331 332 331 330 327 325 325 325 325 326 330 334 334 335 334 332 330 328 326
308 301 303 306 308 304 306 306 307 305 307 310 315 323 327 326 324 322 319 318 318 320 323 329 334 334 336 338 333 332 331 330 329 327 325 324 324 325 326 324 327 330 329 332 334 333 330 324 318
307 303 309 307 311 310 308 305 307 306 303 308 312 319 323 323 322 321 319 317 316 320 322 324 330 330 333 335 334 333 331 329 328 326 324 324 324 321 321 320 322 321 321 322 325 325 324 320 318
301 306 307 311 309 309 306 308 305 305 305 311 314 323 323 322 321 320 320 319 317 319 321 321 324 327 329 334 334 333 332 330 328 327 326 324 320 319 319 319 318 318 319 318 318 316 316 316 318
300 302 307 310 310 308 309 306 306 307 309 310 318 321 321 321 321 321 322 321 317 318 321 321 321 323 329 329 330 332 332 331 330 328 327 325 321 319 319 318 317 317 317 316 316 317 317 318 318
302 303 305 306 309 309 307 306 309 308 311 310 312 317 319 321 322 321 321 321 316 319 321 321 320 322 325 327 328 328 329 328 326 325 326 325 322 320 319 318 318 317 317 316 317 317 317 317 317
305 300 303 303 305 308 308 303 306 310 312 311 309 308 313 319 321 322 323 323 321 319 320 321 321 321 322 325 328 327 326 329 326 326 325 325 323 320 320 317 317 317 317 317 317 317 316 315 316
300 298 293 300 303 307 305 295 304 308 309 309 310 307 308 310 315 321 323 325 323 321 319 322 324 321 321 322 325 326 327 324 328 326 325 325 324 320 318 318 316 316 315 315 314 316 314 314 313
296 288 291 294 300 300 302 297 305 306 305 303 305 310 310 310 312 313 317 324 324 324 321 320 323 321 321 320 322 324 323 324 325 326 325 324 325 323 319 318 318 316 315 314 315 315 315 312 313
290 290 292 290 295 296 298 299 303 304 303 302 302 306 308 309 310 314 317 317 323 324 325 323 322 322 321 321 319 321 322 323 323 323 324 323 324 323 320 319 317 317 315 315 314 314 314 314 314
292 292 291 293 298 297 297 296 299 300 300 300 300 301 305 307 310 311 314 316 317 321 324 325 323 322 322 321 319 319 320 322 322 324 323 322 323 322 321 320 319 318 316 316 315 315 314 314 313
295 292 290 295 298 297 294 294 299 302 302 301 301 301 302 304 305 308 309 312 312 317 320 323 325 323 323 323 322 321 321 321 323 323 323 322 322 322 322 321 320 320 319 316 316 316 314 314 314
294 292 291 292 295 295 294 292 295 299 303 304 304 303 303 304 305 305 306 305 308 311 316 321 324 325 324 324 324 321 320 319 319 321 323 323 323 322 322 321 321 321 321 319 318 317 317 315 314
291 296 295 293 291 285 292 282 290 294 296 299 302 302 303 304 306 307 307 306 307 308 311 318 321 323 326 325 323 322 321 319 321 321 323 324 324 322 322 322 321 321 321 320 319 320 319 318 314
293 297 295 293 289 286 286 284 286 293 291 294 297 299 301 305 304 305 305 308 308 311 311 314 318 320 323 325 326 324 322 323 323 322 320 322 323 324 323 322 321 321 321 321 321 319 319 319 317
297 294 293 293 288 282 286 285 283 289 292 294 295 299 301 302 301 303 303 305 306 307 305 305 308 312 315 320 322 323 324 324 323 322 320 320 321 322 324 323 321 321 321 321 321 321 319 319 319
298 291 282 281 281 279 287 285 287 290 293 293 295 295 298 301 299 299 301 302 304 302 302 304 304 304 305 307 308 312 319 323 324 324 324 323 320 320 322 323 322 321 321 321 321 321 320 319 319
294 291 280 273 276 277 284 280 285 293 295 296 295 297 299 298 297 298 299 298 299 301 302 302 303 303 304 304 304 304 305 311 320 325 326 326 325 324 323 323 324 324 323 321 321 321 320 321 320
291 289 291 282 273 276 280 284 290 293 294 293 295 296 295 297 297 297 298 299 300 299 301 301 301 302 302 303 303 303 304 304 306 311 319 324 327 327 325 324 323 324 324 323 322 320 319 320 320
295 295 286 286 274 270 278 279 282 287 290 293 293 294 295 296 298 298 298 298 298 298 299 300 300 301 302 303 303 304 303 304 305 306 307 309 315 323 326 326 324 323 323 324 323 321 321 320 321
291 290 290 288 282 277 274 278 288 291 290 291 292 295 295 296 297 295 294 295 296 296 298 298 299 300 301 302 302 302 303 303 304 304 306 307 310 313 319 324 325 325 324 324 322 322 321 320 320
294 290 290 283 281 283 280 280 289 290 291 292 293 295 296 297 295 292 293 294 295 295 296 297 298 299 300 301 301 301 301 302 302 303 304 306 307 310 312 316 320 323 324 324 324 322 322 320 320
Wind_Speed
14 9 3 5 6 7 2 2 5 4 4 2 3 6 9 3 3 6 1 15 15 12 8 8 12 15 15 14 12 11 12 12 12 13 13 12 13 17 17 15 14 14 14 15 15 15 14 12 12
9 6 5 3 6 5 3 3 8 5 5 6 4 7 5 3 3 7 7 15 15 13 9 8 12 13 14 14 12 11 11 12 12 13 11 13 11 17 17 15 13 13 13 13 13 14 13 11 9
13 2 4 4 4 4 4 4 7 4 4 3 3 5 4 3 4 7 7 16 15 13 12 10 12 13 13 13 12 11 11 11 11 10 9 14 9 15 17 16 13 12 13 13 12 12 12 10 9
5 6 5 6 7 5 8 6 9 5 4 5 5 7 4 3 10 8 9 13 13 13 12 12 12 14 13 13 12 11 12 12 11 11 9 11 10 15 14 15 12 12 11 11 11 11 10 8 6
4 3 4 3 4 5 4 9 9 6 5 2 3 5 4 3 7 11 8 12 15 11 10 12 13 14 14 13 13 11 12 11 11 12 12 10 10 10 11 12 12 11 11 10 10 10 9 6 4
5 3 5 3 3 4 4 8 8 5 5 1 5 6 3 7 8 6 6 10 11 13 10 10 12 12 13 13 12 12 12 12 11 9 9 10 10 10 9 8 9 11 11 9 9 9 8 5 3
3 4 2 3 4 3 5 6 6 7 6 3 2 5 4 6 7 4 3 8 9 9 8 8 7 10 12 12 12 13 12 12 11 9 6 8 9 10 9 9 5 6 11 8 8 8 7 6 3
3 3 6 5 3 2 3 4 1 6 1 1 3 5 5 6 9 6 2 5 8 9 9 8 6 6 6 7 12 12 12 13 12 11 8 6 6 9 10 9 7 3 7 9 7 7 6 5 3
3 4 3 5 7 3 1 3 3 2 6 4 4 2 5 16 9 5 2 4 5 6 8 9 9 8 7 6 7 9 11 11 10 10 10 7 4 4 6 6 8 7 4 8 8 7 6 5 3
4 3 1 4 2 4 2 3 4 3 4 3 6 6 12 13 10 7 5 7 6 7 6 8 10 10 10 8 7 6 6 5 5 6 6 5 6 5 5 6 7 9 7 6 7 8 7 6 2
3 5 3 2 3 4 5 3 3 5 2 4 9 11 10 8 9 9 7 6 6 7 5 8 11 10 10 8 7 5 4 4 4 7 6 5 5 4 4 3 3 3 5 3 4 3 3 5 4
1 3 1 2 3 4 4 6 4 2 3 2 11 16 11 12 12 11 9 9 8 7 7 6 6 6 7 6 7 7 6 6 6 6 9 5 4 5 4 4 4 4 4 5 4 3 5 6 6
2 2 2 4 3 2 3 4 3 7 5 5 10 11 12 11 11 8 10 9 9 9 10 9 8 7 6 7 5 6 7 6 7 7 9 6 6 5 5 5 4 4 4 5 5 5 4 5 5
3 1 4 2 3 2 2 3 3 6 7 1 9 10 10 12 14 9 11 13 12 13 13 11 11 9 8 6 6 4 4 5 4 5 6 8 6 6 6 6 6 6 5 5 5 5 5 5 5
2 3 4 3 3 5 4 5 10 7 8 7 7 9 11 13 11 15 15 14 14 12 14 14 13 9 10 9 9 6 5 6 5 5 6 9 7 7 7 6 6 7 6 7 5 5 4 4 4
4 4 3 5 5 6 9 10 9 6 8 11 11 9 9 11 11 15 14 15 13 12 15 14 12 13 12 10 8 7 7 5 7 6 6 10 10 8 6 7 6 6 5 5 5 5 5 5 5
1 3 5 6 9 6 8 7 7 6 7 8 9 11 9 9 9 10 13 16 13 14 14 14 14 16 14 10 7 8 8 7 7 8 8 10 11 10 7 7 7 7 6 6 6 5 4 4 4
6 4 5 5 3 7 7 9 8 6 5 8 8 9 8 8 10 9 10 10 12 12 14 15 13 14 14 9 5 4 7 7 6 8 8 9 9 11 9 6 7 7 5 6 5 6 5 4 6
5 5 7 3 9 8 9 7 12 4 5 10 10 8 9 9 8 7 8 8 9 8 12 13 13 12 10 9 8 7 11 8 7 8 8 9 10 11 11 9 8 8 9 10 9 7 8 7 4
9 6 5 5 5 4 4 7 8 11 8 8 10 12 10 7 8 10 8 8 8 10 11 11 14 13 13 11 9 8 8 7 7 7 9 11 12 12 12 12 10 11 9 9 10 10 5 6 6
9 7 4 5 5 2 1 9 9 9 12 16 12 11 8 11 10 9 8 6 5 6 8 13 16 16 14 13 6 3 1 2 5 8 9 12 13 13 14 14 13 12 11 11 12 12 14 10 6
13 7 5 2 2 5 3 9 5 6 10 7 13 14 14 11 9 8 7 7 7 6 7 8 8 10 12 13 9 12 10 11 11 10 9 10 12 15 15 16 15 14 11 14 13 11 13 11 10
8 8 8 4 2 2 0 5 6 3 5 10 10 10 13 15 9 9 2 4 5 5 5 3 2 3 6 10 13 10 11 9 8 7 8 11 11 14 15 16 16 16 13 15 15 13 15 12 11
8 7 6 4 4 10 8 8 6 7 15 9 6 6 9 9 4 8 5 5 5 5 7 6 6 4 1 2 5 8 12 12 9 8 8 8 9 10 16 17 16 16 15 16 15 16 17 16 14
12 11 2 4 5 9 8 9 15 5 8 6 6 3 5 9 9 7 7 6 6 7 7 6 7 5 6 5 3 3 7 9 13 13 10 11 7 9 13 16 16 15 17 17 16 16 17 17 16
17 13 7 9 6 3 8 11 8 11 7 2 4 8 8 8 6 7 7 6 6 5 5 5 5 5 5 6 7 6 5 3 5 9 10 10 11 10 13 14 17 19 19 17 17 14 14 17 16
8 10 8 5 3 3 6 6 7 6 8 4 6 7 8 8 7 8 6 5 3 2 2 2 4 5 5 5 6 7 6 6 5 7 6 8 12 11 11 14 16 19 19 20 18 15 17 17 18
12 8 6 4 4 4 5 5 8 4 10 10 8 8 9 7 8 6 4 4 3 4 3 4 3 3 3 4 5 5 7 7 7 6 7 8 10 12 13 13 13 17 18 19 19 17 18 19 16
5 7 6 5 6 7 2 8 9 14 8 10 5 10 10 9 8 6 5 4 4 2 3 2 3 4 6 6 5 6 7 8 7 6 7 8 9 10 12 13 14 14 15 17 19 21 21 21 20
13 13 13 9 12 6 2 9 2 9 8 7 8 9 8 8 8 7 7 5 4 1 1 2 3 5 4 5 6 7 7 7 7 8 10 9 10 10 12 13 14 15 16 14 18 21 19 22 21
Wind_Direction
312 303 281 41 59 69 90 88 125 80 58 100 63 75 110 65 58 137 124 120 128 127 124 120 119 115 116 113 110 107 105 102 103 107 110 97 97 106 102 97 99 97 92 91 87 86 86 89 91
305 314 41 75 86 85 274 90 100 103 142 122 73 111 47 99 75 132 103 131 130 131 127 125 124 125 122 118 116 110 109 106 103 108 117 108 100 115 112 106 102 92 93 92 93 91 89 91 84
301 186 70 99 105 123 128 151 132 118 144 157 91 68 104 116 113 140 150 142 136 137 137 135 134 130 126 123 121 119 114 114 115 113 117 119 101 115 119 110 102 98 99 99 97 95 94 92 82
327 4 15 76 91 356 123 158 123 111 10 19 104 72 53 357 150 158 152 126 125 135 139 140 141 139 136 132 129 128 124 122 121 122 124 116 106 100 110 110 102 107 102 103 101 99 97 94 78
17 50 28 71 81 84 90 146 140 158 162 201 92 151 94 30 108 141 143 122 127 134 140 142 147 146 143 141 139 135 128 129 132 133 134 125 115 115 110 105 116 109 111 111 109 106 104 96 75
1 74 39 36 100 104 100 147 137 122 128 116 91 107 168 141 117 157 142 125 136 139 144 142 148 151 150 147 145 141 135 131 134 137 140 141 134 135 138 132 122 126 122 126 123 120 116 109 77
58 44 268 322 154 127 147 139 138 153 135 182 156 78 162 146 164 173 139 133 138 134 135 136 149 159 156 152 148 145 145 142 143 144 140 144 145 146 146 148 119 135 131 137 130 131 130 122 88
83 75 324 336 187 171 176 102 84 86 78 318 91 161 191 178 160 175 191 159 136 141 145 153 151 157 158 159 157 155 153 152 150 147 143 142 153 158 153 159 154 104 144 147 144 142 141 140 146
37 54 311 330 19 332 134 88 28 151 107 55 48 84 148 134 134 153 182 156 136 154 159 161 161 166 164 164 166 157 157 156 152 151 152 144 149 153 158 174 171 143 139 158 164 164 159 163 193
101 119 222 20 36 322 217 105 144 89 100 83 70 60 114 132 145 172 192 175 163 181 186 169 171 176 172 171 160 161 160 166 162 164 169 168 174 177 175 173 167 165 171 174 186 181 183 188 207
199 181 293 39 83 22 327 50 235 130 198 201 178 165 155 152 165 181 198 195 199 193 197 184 182 174 176 168 170 170 168 171 180 175 185 190 181 180 165 161 159 167 194 195 186 202 214 213 219
211 272 276 306 69 48 20 311 354 55 161 290 170 162 157 169 183 189 189 198 189 193 200 216 192 184 181 162 176 181 180 184 184 195 194 183 172 175 170 175 183 183 185 200 210 210 222 229 232
234 246 312 78 55 106 40 319 284 302 279 56 128 152 168 179 191 189 195 208 203 194 190 197 195 189 198 186 170 175 189 199 188 188 201 191 173 184 170 185 187 197 198 198 200 217 224 233 241
304 124 249 346 208 169 158 267 27 258 284 250 142 179 186 188 195 193 195 209 198 197 198 192 194 191 175 193 184 178 185 207 202 193 192 200 185 183 189 189 196 199 195 202 203 203 209 219 215
86 44 8 308 224 207 150 296 239 231 279 275 198 202 191 204 196 203 202 204 201 200 192 194 191 188 191 184 188 187 187 193 201 204 198 202 195 194 195 197 202 204 197 203 206 218 214 218 218
108 66 93 261 196 228 120 260 254 247 242 252 248 216 221 214 200 210 204 207 196 188 191 190 191 193 199 196 187 192 199 186 203 201 201 201 202 193 202 206 211 200 195 194 196 199 206 210 210
345 169 192 277 226 219 166 241 250 247 251 258 271 248 227 232 236 221 205 202 199 190 184 187 188 195 198 195 193 199 194 203 202 202 203 201 205 203 197 209 210 200 205 204 205 210 188 203 223
168 183 241 215 259 197 210 233 253 268 305 276 277 269 234 225 244 239 210 201 200 192 187 188 189 191 195 192 187 196 207 215 207 205 208 200 207 207 204 212 213 202 205 214 206 199 206 201 208
168 185 209 246 246 212 226 219 250 253 250 270 274 260 263 262 260 239 234 222 201 199 189 191 185 188 183 194 197 205 216 218 222 219 212 204 209 204 208 214 214 204 208 212 210 212 210 222 204
237 236 247 285 278 187 264 263 245 272 249 222 246 255 238 243 263 267 257 235 220 199 197 188 193 185 193 195 202 207 203 216 220 217 214 211 209 206 211 214 217 215 216 213 206 205 212 223 187
218 213 184 232 323 290 311 267 242 249 258 255 240 246 238 216 234 248 253 241 245 242 228 192 194 191 194 199 187 187 187 230 211 212 218 216 211 211 211 214 216 215 214 219 216 211 208 220 215
214 182 202 187 117 235 62 288 277 269 267 246 244 232 231 230 235 237 253 255 239 247 244 219 196 181 195 189 190 201 209 219 231 232 230 224 213 214 212 216 214 214 214 222 220 216 214 211 215
209 170 187 175 188 8 266 312 270 252 281 267 249 240 221 224 216 234 18 111 82 65 64 72 201 236 204 188 199 202 215 229 237 227 221 219 221 220 220 218 217 217 217 223 221 217 213 213 216
151 89 45 66 86 258 199 195 213 213 229 255 261 252 218 216 126 121 134 110 85 79 56 40 43 40 30 201 218 222 223 225 230 230 227 227 224 221 223 222 222 222 223 224 222 222 219 218 219
166 139 121 203 214 234 189 196 257 277 269 223 172 137 114 121 140 136 104 80 69 64 43 33 33 18 18 18 355 272 251 242 242 240 236 235 225 223 223 221 223 226 227 228 226 224 224 221 222
184 177 161 189 203 225 145 230 250 219 235 148 211 151 121 120 117 109 105 93 81 59 40 30 21 4 356 345 326 321 310 271 268 256 249 247 240 230 226 221 225 226 227 228 229 230 229 227 227
189 200 173 110 21 65 219 298 315 253 257 229 178 135 141 139 138 133 135 126 76 42 43 32 355 334 327 313 307 303 297 298 286 277 271 273 260 250 235 222 225 229 229 228 226 229 229 229 230
174 139 192 188 164 246 263 247 230 235 228 249 221 202 169 165 148 142 95 89 78 89 49 35 13 319 318 339 331 313 302 294 288 288 286 282 283 279 258 243 229 231 232 231 228 229 231 231 230
144 185 200 156 173 194 231 250 208 211 203 208 185 162 167 171 151 133 131 125 105 86 79 33 24 19 2 359 340 341 322 309 297 285 278 279 285 281 274 267 256 243 234 229 230 231 230 229 231
202 195 189 195 214 219 183 258 241 149 160 144 166 176 182 170 152 148 146 135 124 134 1 30 32 40 9 358 357 339 327 323 320 314 305 290 286 289 288 282 269 261 252 239 231 235 233 231 231